STARLINK-32848, 62808

Orbit data source: Space-Track

STARLINK-32848, 62808 is a payload satellite owned by SpaceX/Seattle (US) in LEO that was launched on Fri, 24 Jan 2025 UTC via an FALCON 9 launch vehicle from the Air Force Western Test Range (AFWTR). Payload-class satellites include a variety of spacecraft equipped with specific instruments for various scientific and technological missions. These include communications satellites like Starlink; space stations such as the ISS; scientific satellites like the Hubble; Earth observation satellites from companies like Planet Labs, Umbra, and HawkEye 360; GPS; miniature CubeSats for education and research; and military/defense satellites.

Loading next visibility...
Identifier
62808, 2025-018C
Orbit
LEO
Last TLE update
14 hours ago
Origin
Manufacturer
SpaceX/Seattle
Mission
Operational Commercial Communications
Bus & Motor
STARLINK V2M, Unknown motor
Mass
730 kg wet, ~700 kg dry
Launch date (UTC)
2025-01-24 (5 months ago)
Launch vehicle
FALCON 9
Launch site
Air Force Western Test Range (AFWTR)
Object type
Payload
Rocket body
Debris
Shape & HBR
Box + 2 Pan, 29 m
Radar Cross Section
33.884 m², Large (>1 m²)

Expand to show TLE details & history

TLE from 14 hours ago
0 STARLINK-32848
1 62808U 25018C   25181.86664884  .00017329  00000-0  59561-3 0  9998
2 62808  53.1608  39.2607 0001353  85.5610 274.5545 15.30211995 25525
Epoch: 2025-06-30T20:47Z
TLE epoch observation values (Epoch: 2025-06-30T20:47:58.459Z)
Latitude
-0.00006°
Longitude
168.09677°
Altitude
476.006 km
Speed
7.629 km/s
True Right ascension
02h 37m 02s
True Declination
0° 00' 00"
Sunlit
Object was in daylight at epoch
Visualization orbit readout
Latitude
-46.48199°
Longitude
113.73608°
Altitude
491.77 km
Speed
7.618 km/s
Apparent Right ascension
05h 17m 24s
Apparent Declination
-84° 07' 37"
Sunlit
Object is in full shadow
Visualization observer readout
Local Sidereal Time
22:16:00
Azimuth
172.461° S
Elevation
-41.229°
Doppler factor
1
Orbital elements
Apogee altitude
476.363 km
Perigee altitude
474.508 km
Semi-major axis
6,853.573 km
Eccentricity
0.00014
Inclination
53.1608°
RAAN
39.2607°
Arg. of periapsis
85.561°
True anomaly
Unknown
Mean anomaly
274.5545°
Eccentric anomaly
Unknown
Mean motion
3.82532 °/min
Orbital period
94.11 mins
BSTAR
0.00059561
Loading maneuver chart data...
Loading SW <> Apogee altitude chart data...
Loading historical data...
Loading historical data...
Loading historical data...
Loading historical data...
Loading historical data...
Loading historical data...
Loading historical data...

STARLINK-32848 Visibility forecast

Observer location: undefined°, undefined°

Span
Click to sort rows by Start time (UTC) header in descending order
Start Az.
Max El. time (UTC)
Max El. Az.
Max El.
End time (UTC)
End Az.
5 mins2025-07-01 17:22:31.992Z237.258° WSW2025-07-01 17:24:31.992Z272.055° WNW42.978°2025-07-01 17:27:31.992Z45.585° ENE
4 mins2025-07-01 22:19:31.992Z343.872° N2025-07-01 22:21:31.992Z21.496° NNE17.372°2025-07-01 22:23:31.992Z59.539° ENE
6 mins2025-07-01 23:57:31.992Z310.504° NW2025-07-01 23:59:31.992Z313.444° NW43.411°2025-07-02 00:03:31.992Z130.689° SE
|